Satellite-Ground Cal/Val Site Overpasses Predictions

Prediction of Satellite NPP Overpassing Cal/Val Site: Antarctic Dome C

Ground Cal/Val Site Location: Latitude: -75.10, Longitude: 123.35; Satellite-Ground Site NADIR distance within 100 km.

Table of predicted overpasses for the next 14.0 days since TLE Epoch: 2/17/2024
Interval Starting Time Ending Time Minimum Distance Time Minimum Distance (km)
1 02/18/2024 14:55:28 02/18/2024 14:55:56 02/18/2024 14:55:42 22.37
2 02/19/2024 14:36:45 02/19/2024 14:37:00 02/19/2024 14:36:53 84.79
3 02/20/2024 07:38:17 02/20/2024 07:38:45 02/20/2024 07:38:31 36.50
4 02/21/2024 07:19:30 02/21/2024 07:19:50 02/21/2024 07:19:40 73.54
5 02/23/2024 15:01:44 02/23/2024 15:02:07 02/23/2024 15:01:56 59.17
6 02/24/2024 14:42:53 02/24/2024 14:43:18 02/24/2024 14:43:06 50.17
7 02/25/2024 07:44:33 02/25/2024 07:44:53 02/25/2024 07:44:43 71.39
8 02/26/2024 07:25:40 02/26/2024 07:26:07 02/26/2024 07:25:54 36.65
9 02/28/2024 15:08:05 02/28/2024 15:08:12 02/28/2024 15:08:09 96.46
